Regional Weather Roundup
Issued by NWS

Home | Current Version | Previous Version | Graphics & Text | Print | Product List | Glossary On
Versions: 1 2 3 4 5 6 7 8 9 10 11 12 13 14 15 16 17 18 19 20 21 22 23 24 25 26 27 28 29 30 31 32 33 34 35 36 37 38 39 40 41 42 43 44 45 46 47 48 49 50
000
ASUS43 KMKX 281521
RWRWI

WISCONSIN REGIONAL WEATHER ROUNDUP
NATIONAL WEATHER SERVICE MILWAUKEE/SULLIVAN WI
1000 AM CDT THU JUL 28 2016

NOTE: "FAIR" INDICATES FEW OR NO CLOUDS BELOW 12,000 FEET WITH NO
SIGNIFICANT WEATHER AND/OR OBSTRUCTIONS TO VISIBILITY.

WIZ001-002-006>008-014>016-023>028-281600-
NORTHWEST WISCONSIN

CITY           SKY/WX    TMP DP  RH WIND       PRES   REMARKS
SUPERIOR ARPT  MOSUNNY   67  58  72 NE9       30.09R
ASHLAND        SUNNY     68  59  73 N14       30.06F
HAYWARD        CLOUDY    68  56  65 NE12      30.06S
SIREN          CLOUDY    66  57  72 NE6       30.06R
CUMBERLAND     CLOUDY    64  55  72 NE12      30.04R
RICE LAKE      CLOUDY    67  59  75 NE8       30.04R
CHETEK         CLOUDY    68  62  82 MISG      30.02S
LADYSMITH      CLOUDY    69  60  73 NE12      30.05R
EAU CLAIRE     CLOUDY    66  63  90 NE12      29.98R
MENOMONIE      CLOUDY    67  67 100 N7        30.00R
NEW RICHMOND   CLOUDY    67  63  87 NE7       30.03S
OSCEOLA        CLOUDY    67  67 100 N5        30.06S
$$

WIZ003>005-009-010-017-018-281600-
NORTH CENTRAL WISCONSIN

CITY           SKY/WX    TMP DP  RH WIND       PRES   REMARKS
MANITOWISH WTR SUNNY     67  56  67 NE9       30.05F
ARBOR VITAE    SUNNY     69  57  65 NE6       30.05F
WOODRUFF       SUNNY     69  57  65 NE6       30.05F
RHINELANDER    CLOUDY    64  56  75 E9        30.05S
EAGLE RIVER    SUNNY     68  53  59 E7        30.05S
LAND O LAKES   SUNNY     68  55  63 E5        30.07R
PHILLIPS       MOSUNNY   67  57  69 NE8       30.04S
TOMAHAWK       CLOUDY    64  57  78 NE6       30.05R
MEDFORD        DRIZZLE   61  61 100 NE8       30.02S
MERRILL        CLOUDY    62  62 100 E5        30.04R
$$

WIZ029-030-035-036-043>047-281600-
CENTRAL WISCONSIN

CITY           SKY/WX    TMP DP  RH WIND       PRES   REMARKS
WAUSAU         LGT RAIN  60  59  96 E8        30.01S FOG
MOSINEE        LGT RAIN  61  61 100 NE7       30.02S
MARSHFIELD     CLOUDY    62  59  90 E12       29.99S
STEVENS POINT  CLOUDY    60  59  97 E9        30.01S
WAUPACA        CLOUDY    69  64  86 NE8       29.98F
WAUTOMA        CLOUDY    66  61  84 NE12      29.97F
WISC RAPIDS    CLOUDY    65  60  84 E12       29.99S
CAMP DOUGLAS   NOT AVBL
$$

WIZ011>013-019>022-031-037>040-048>050-281600-
NORTHEAST WISCONSIN

CITY           SKY/WX    TMP DP  RH WIND       PRES   REMARKS
ANTIGO         CLOUDY    60  58  94 CALM      30.04S
SHAWANO        CLOUDY    64  61  91 NE8       30.01F
OCONTO         CLOUDY   N/A N/A N/A N3        30.01S
STURGEON BAY   LGT RAIN  65  62  90 NE9       30.01F
GREEN BAY      CLOUDY    68  66  93 NE15      29.99F
MANITOWOC      CLOUDY    66  62  87 NE10G16   29.97F
APPLETON       CLOUDY    64  57  77 E14G21    29.97F
CLINTONVILLE   CLOUDY    63  61  94 NE6       30.01S
OSHKOSH        CLOUDY    68  61  78 NE13      29.97S
$$

WIZ032>034-041-042-053>061-281600-
SOUTHWEST WISCONSIN

CITY           SKY/WX    TMP DP  RH WIND       PRES   REMARKS
LA CROSSE      LGT RAIN  69  67  93 N6        29.93S FOG
SPARTA         CLOUDY    68  67  94 E8        29.94S
VIROQUA        CLOUDY    69  69 100 CALM      29.94R
BOSCOBEL       CLOUDY    74  69  85 CALM      29.91F
PRAIRIE DU CHI CLOUDY    73  68  84 NW5       29.91S
PLATTEVILLE    PTSUNNY   78  70  77 E3        29.92S HX  80
$$

WIZ056-057-062-063-064-067-068-281600-
SOUTH CENTRAL WISCONSIN

CITY           SKY/WX    TMP DP  RH WIND       PRES   REMARKS
REEDSBURG      CLOUDY    69  67  93 E8        29.94R
BARABOO/DELLS  CLOUDY    68  65  88 E9        29.95R
LONE ROCK      CLOUDY    72  68  87 E7        29.93S
MINERAL POINT  CLOUDY    73  70  88 E6        29.93S
MADISON        CLOUDY    73  67  81 NE7       29.92F
MIDDLETON      CLOUDY    73  68  84 NE8       29.93F
WATERTOWN      CLOUDY    72  71  96 E8        29.93F
MONROE         CLOUDY    73  70  88 NE6       29.92F
JANESVILLE     MOSUNNY   79  70  73 E7        29.90F HX  81
$$

WIZ051-052-058>065-066-070>072-281600-
SOUTHEAST WISCONSIN

CITY           SKY/WX    TMP DP  RH WIND       PRES   REMARKS
MILWAUKEE      PTSUNNY   74  68  81 N9        29.93F
WAUKESHA       CLOUDY    72  66  83 NE12      29.95
MILWAUKEE/TIMM CLOUDY    73  64  73 NE10      29.94F
RACINE         SUNNY     75  68  78 NE5       29.94F
BURLINGTON     PTSUNNY   76  67  75 E6        29.93S
KENOSHA        PTSUNNY   77  69  76 E6        29.92F
FOND DU LAC    CLOUDY    70  63  78 E9        29.96F
SHEBOYGAN      CLOUDY    71  61  70 NE20      29.96F
WEST BEND      CLOUDY    68  63  83 NE8       29.95F
JUNEAU         CLOUDY    69  65  88 NE12      29.95F
$$

LSZ147-162-281600-
LAKE SUPERIOR

STATION/POSITION TIME  TEMP    WIND        PRES    WAVE
                       AIR SEA DIR/SP/G            HT/PER
                 (UTC) (F)     (DEG/KT/KT) (MB)    (FT/S)
W MID LAKE BUOY  1450   61 60   50/ 10/ 12 1018.2R   2/ 3
DEVILS ISLAND    1500   63      60/ 18/ 21 1018.5S
PORT WING        1340   62      20/ 10/ 11 1018.3S
SAXON HARBOR     1440   66      30/  7/  9 1017.6S
$$

LMZ867-665-643>646-281600-
LAKE MICHIGAN

STATION/POSITION TIME  TEMP    WIND        PRES    WAVE
                       AIR SEA DIR/SP/G            HT/PER
                 (UTC) (F)     (DEG/KT/KT) (MB)    (FT/S)
CHAMBERS ISLAND  1400   66      30/  8/ 11 1016.3
N MID LAKE BUOY  1450   66 69   50/  8/ 10 1015.5R   1/ 4
NORTHPORT PIER   1400   66      50/  4/  5 1016.6R
SISTER BAY       1421   68      20/  4/  7   N/A
ALGOMA LAKESHORE 1443           50/ 13/ 17   N/A
KEWAUNEE LAKESHO 1400   62      30/  4/  8 1015.2R
SHEBOYGAN LAKESH 1500   60     350/ 18/ 19 1014.7F
PORT WASHINGTON  1400   71     350/  5/ 12 1014.9
ATWATER BUOY     1500   63 61  360/ 14/ 16 1015.0F
MILWAUKEE LAKESH 1410   68     360/ 10/ 13   N/A
S MID LAKE BUOY  1450   74 75  100/  4/  6 1012.2F   1
KENOSHA   LAKESH 1500   65      10/  5/  5 1012.9F
$$

TC  - TEMPERATURE IN CELSIUS
VSB - VISIBILITY IN STATUTE MILES
WCI - WIND CHILL INDEX
HX  - HEAT INDEX





USA.gov is the U.S. government's official web portal to all federal, state and local government web resources and services.